Precipitable_Water
0.43 0.36 0.37 0.39 0.39 0.41 0.36 0.31 0.27 0.25 0.22 0.19 0.21 0.23 0.24 0.25 0.25 0.31 0.36 0.37 0.33 0.26 0.28 0.41 0.38 0.37 0.39 0.56 0.61 0.62 0.69 0.65 0.72 0.68 0.90 0.88 1.00 1.01 1.02 0.98 1.03 1.08 1.16 1.28 1.36 1.33 1.40 1.41 1.44 1.49 1.55 1.65 1.72 1.73 1.72 1.70 1.69 1.67 1.71 1.79 1.75 1.82 1.82 1.74 1.73 1.68 1.80 1.79 1.83 1.89 1.89 1.87 1.97 1.95 1.94 1.97 2.02 2.14 2.21 2.22 2.25 2.28 2.25 2.25 2.23 2.17
0.40 0.33 0.28 0.30 0.36 0.36 0.32 0.28 0.26 0.22 0.19 0.18 0.20 0.21 0.24 0.23 0.26 0.31 0.33 0.39 0.40 0.23 0.23 0.32 0.34 0.35 0.36 0.54 0.62 0.73 0.66 0.61 0.69 0.77 0.85 0.94 0.85 0.91 1.02 1.04 1.03 1.03 1.24 1.35 1.35 1.32 1.31 1.41 1.46 1.53 1.58 1.57 1.54 1.59 1.58 1.61 1.68 1.70 1.69 1.72 1.79 1.82 1.81 1.73 1.73 1.73 1.75 1.85 1.84 1.81 1.84 1.90 1.90 1.82 1.81 1.77 1.89 2.02 2.09 2.16 2.26 2.29 2.21 2.14 2.13 2.15
0.41 0.33 0.32 0.31 0.35 0.34 0.30 0.23 0.20 0.17 0.15 0.18 0.21 0.23 0.23 0.26 0.27 0.34 0.34 0.29 0.32 0.21 0.26 0.32 0.31 0.34 0.42 0.73 0.68 0.69 0.67 0.64 0.74 0.71 0.75 0.89 0.86 0.99 1.03 1.01 1.06 1.01 1.17 1.34 1.38 1.35 1.40 1.43 1.44 1.51 1.55 1.57 1.48 1.42 1.43 1.53 1.60 1.63 1.68 1.74 1.85 1.82 1.74 1.64 1.65 1.69 1.68 1.86 1.91 1.93 1.91 1.87 1.82 1.90 1.88 1.87 1.94 2.05 2.02 2.01 2.04 2.11 2.12 2.09 2.09 2.12
0.28 0.33 0.33 0.36 0.32 0.26 0.23 0.21 0.19 0.15 0.14 0.17 0.20 0.22 0.23 0.26 0.25 0.26 0.32 0.27 0.28 0.22 0.22 0.28 0.32 0.34 0.42 0.60 0.59 0.59 0.63 0.74 0.82 0.75 0.83 0.94 0.89 1.00 0.97 0.92 1.01 1.00 1.10 1.08 1.18 1.29 1.44 1.50 1.48 1.44 1.48 1.52 1.56 1.54 1.48 1.51 1.56 1.68 1.71 1.76 1.81 1.78 1.76 1.66 1.65 1.64 1.75 1.82 1.86 1.95 1.94 1.95 1.95 1.94 2.01 2.03 2.03 1.99 1.94 1.87 1.94 2.01 2.03 2.07 2.07 2.07
0.30 0.34 0.34 0.31 0.29 0.24 0.19 0.18 0.17 0.16 0.16 0.19 0.21 0.22 0.24 0.20 0.22 0.22 0.21 0.24 0.29 0.27 0.29 0.37 0.33 0.30 0.47 0.43 0.53 0.63 0.78 0.90 0.76 0.72 0.85 0.93 1.00 1.08 1.03 1.03 1.03 1.08 1.13 1.12 1.20 1.41 1.48 1.46 1.37 1.32 1.24 1.38 1.47 1.50 1.56 1.56 1.52 1.53 1.56 1.67 1.74 1.78 1.83 1.77 1.73 1.67 1.77 1.90 1.87 1.89 1.92 2.03 1.98 2.00 1.94 1.89 1.86 1.88 1.91 1.92 1.92 1.94 1.94 1.96 2.06 2.13
0.27 0.23 0.31 0.31 0.28 0.24 0.19 0.16 0.15 0.15 0.16 0.17 0.22 0.22 0.23 0.23 0.23 0.23 0.18 0.16 0.18 0.28 0.36 0.36 0.21 0.30 0.46 0.45 0.52 0.57 0.74 0.90 0.87 0.81 0.95 1.08 1.20 1.20 1.04 1.01 1.02 1.06 1.18 1.18 1.28 1.36 1.47 1.60 1.45 1.32 1.21 1.26 1.37 1.43 1.51 1.61 1.66 1.63 1.63 1.69 1.78 1.83 1.98 1.98 2.00 1.81 1.86 1.91 1.86 1.80 1.75 1.73 1.75 1.71 1.72 1.66 1.70 1.77 1.72 1.68 1.81 1.83 1.89 1.96 1.96 2.02
0.31 0.33 0.27 0.23 0.21 0.19 0.17 0.15 0.16 0.16 0.15 0.17 0.18 0.24 0.23 0.22 0.22 0.17 0.17 0.17 0.17 0.16 0.36 0.25 0.20 0.24 0.39 0.37 0.45 0.51 0.58 0.78 0.96 0.86 0.85 0.85 1.01 1.12 1.06 1.04 1.04 1.02 1.10 1.17 1.14 1.22 1.29 1.61 1.58 1.49 1.42 1.50 1.52 1.52 1.61 1.62 1.66 1.67 1.68 1.73 1.87 1.96 2.08 2.20 2.19 2.09 2.02 1.97 1.96 1.89 1.83 1.81 1.76 1.69 1.75 1.80 1.86 1.86 1.83 1.82 1.83 1.86 1.90 1.98 1.95 1.97
0.21 0.23 0.24 0.19 0.16 0.14 0.14 0.14 0.17 0.17 0.13 0.16 0.18 0.21 0.21 0.21 0.19 0.18 0.18 0.18 0.15 0.17 0.19 0.25 0.25 0.24 0.27 0.41 0.46 0.45 0.55 0.71 0.77 0.81 0.82 0.90 0.92 0.96 1.05 1.02 1.01 1.03 1.03 1.08 1.09 1.22 1.45 1.60 1.58 1.53 1.54 1.45 1.42 1.49 1.58 1.59 1.66 1.65 1.71 1.80 1.96 2.02 2.02 1.94 2.05 1.99 1.88 1.91 1.89 1.89 1.89 1.91 1.86 1.78 1.74 1.79 1.84 1.91 1.92 1.90 1.92 1.95 1.93 1.94 1.94 1.91
0.17 0.16 0.16 0.15 0.16 0.13 0.13 0.18 0.19 0.20 0.17 0.17 0.20 0.20 0.19 0.18 0.18 0.18 0.17 0.15 0.15 0.16 0.16 0.19 0.25 0.25 0.29 0.43 0.45 0.51 0.57 0.61 0.77 0.70 0.70 0.80 0.87 0.97 0.96 0.96 0.97 1.03 1.11 1.06 1.22 1.30 1.38 1.65 1.46 1.48 1.36 1.37 1.34 1.42 1.48 1.57 1.60 1.77 1.90 1.88 1.92 1.77 1.76 1.89 1.88 1.90 1.94 1.92 1.89 1.90 1.95 1.90 1.92 1.85 1.79 1.84 1.90 1.87 1.91 1.87 1.96 1.94 1.91 1.94 1.98 1.93
0.20 0.21 0.22 0.16 0.15 0.15 0.18 0.20 0.23 0.23 0.17 0.22 0.21 0.20 0.17 0.16 0.17 0.17 0.16 0.15 0.17 0.17 0.18 0.21 0.24 0.23 0.37 0.34 0.45 0.52 0.50 0.63 0.71 0.69 0.70 0.78 0.83 0.89 0.85 0.87 0.88 0.91 0.97 1.11 1.16 1.20 1.12 1.44 1.64 1.62 1.52 1.38 1.37 1.43 1.57 1.66 1.70 1.87 1.99 1.76 1.52 1.49 1.66 1.77 1.85 1.91 1.85 1.85 1.85 1.84 1.89 1.86 1.81 1.81 1.81 1.85 1.84 1.83 1.86 1.88 1.95 1.96 1.94 1.94 1.95 1.93
0.19 0.22 0.21 0.19 0.17 0.18 0.19 0.22 0.23 0.22 0.18 0.18 0.18 0.17 0.17 0.17 0.17 0.18 0.19 0.20 0.19 0.18 0.21 0.26 0.27 0.25 0.23 0.36 0.37 0.37 0.52 0.64 0.63 0.67 0.69 0.79 0.82 0.84 0.86 0.85 0.84 0.92 0.97 1.05 1.25 1.36 1.31 1.34 1.69 1.75 1.64 1.49 1.53 1.72 1.73 1.77 1.74 1.85 1.72 1.52 1.52 1.63 1.72 1.75 1.82 1.88 1.81 1.75 1.82 1.82 1.80 1.81 1.78 1.77 1.74 1.72 1.74 1.80 1.81 1.84 1.91 1.94 1.93 1.97 1.96 1.95
0.16 0.19 0.19 0.20 0.17 0.15 0.17 0.17 0.19 0.22 0.21 0.18 0.19 0.19 0.18 0.18 0.21 0.21 0.21 0.24 0.20 0.21 0.26 0.31 0.30 0.30 0.29 0.45 0.48 0.59 0.60 0.62 0.69 0.60 0.68 0.68 0.73 0.79 0.82 0.83 0.87 0.93 1.02 1.13 1.25 1.31 1.46 1.46 1.53 1.74 1.50 1.51 1.54 1.62 1.66 1.72 1.79 1.79 1.84 1.75 1.57 1.72 1.74 1.75 1.80 1.84 1.78 1.74 1.78 1.84 1.84 1.80 1.80 1.76 1.70 1.66 1.67 1.74 1.73 1.78 1.82 1.87 1.86 1.86 1.92 1.98
0.15 0.17 0.22 0.22 0.24 0.15 0.18 0.20 0.25 0.28 0.28 0.26 0.25 0.22 0.17 0.18 0.20 0.19 0.22 0.22 0.23 0.24 0.30 0.32 0.33 0.39 0.38 0.44 0.53 0.56 0.62 0.68 0.69 0.67 0.72 0.74 0.78 0.75 0.82 0.82 0.83 0.94 0.99 1.02 1.05 1.15 1.28 1.34 1.40 1.65 1.52 1.56 1.52 1.56 1.52 1.62 1.64 1.77 1.76 1.74 1.65 1.69 1.68 1.71 1.77 1.72 1.70 1.67 1.68 1.77 1.82 1.79 1.78 1.74 1.69 1.65 1.64 1.72 1.72 1.77 1.81 1.83 1.79 1.83 1.81 1.88
0.18 0.20 0.22 0.23 0.25 0.28 0.21 0.18 0.25 0.25 0.25 0.25 0.23 0.22 0.18 0.17 0.17 0.17 0.20 0.23 0.25 0.27 0.29 0.28 0.34 0.32 0.46 0.50 0.55 0.60 0.73 0.76 0.79 0.80 0.78 0.78 0.74 0.77 0.81 0.85 0.89 0.98 1.01 0.99 1.06 1.16 1.22 1.20 1.32 1.53 1.58 1.56 1.48 1.49 1.51 1.52 1.52 1.61 1.74 1.62 1.62 1.49 1.54 1.58 1.64 1.67 1.65 1.68 1.71 1.75 1.76 1.74 1.74 1.70 1.69 1.63 1.58 1.63 1.72 1.80 1.80 1.81 1.80 1.81 1.81 1.84
0.17 0.19 0.22 0.28 0.26 0.30 0.30 0.25 0.26 0.23 0.25 0.26 0.22 0.19 0.19 0.17 0.15 0.15 0.18 0.19 0.22 0.25 0.29 0.32 0.30 0.38 0.39 0.47 0.68 0.61 0.64 0.71 0.71 0.85 0.80 0.80 0.82 0.86 0.86 0.92 0.89 0.99 1.04 0.99 1.06 1.08 1.11 1.21 1.32 1.42 1.57 1.58 1.54 1.50 1.48 1.48 1.49 1.57 1.67 1.62 1.50 1.37 1.31 1.31 1.45 1.58 1.65 1.69 1.75 1.66 1.63 1.67 1.71 1.70 1.68 1.65 1.64 1.65 1.66 1.73 1.76 1.81 1.88 1.85 1.85 1.87
0.22 0.23 0.27 0.32 0.36 0.37 0.33 0.32 0.26 0.23 0.22 0.22 0.23 0.21 0.17 0.24 0.21 0.16 0.21 0.22 0.22 0.23 0.25 0.30 0.32 0.44 0.43 0.65 0.66 0.66 0.68 0.72 0.81 0.74 0.78 0.78 0.84 0.91 0.89 0.86 0.92 0.96 1.05 1.08 1.10 1.07 1.10 1.13 1.31 1.40 1.48 1.62 1.64 1.52 1.45 1.45 1.46 1.49 1.55 1.70 1.44 1.45 1.42 1.36 1.42 1.53 1.63 1.59 1.60 1.59 1.60 1.66 1.71 1.73 1.72 1.70 1.74 1.76 1.78 1.79 1.82 1.87 1.91 1.93 1.91 1.94
0.25 0.21 0.29 0.35 0.37 0.37 0.37 0.34 0.29 0.27 0.19 0.22 0.20 0.18 0.21 0.28 0.25 0.21 0.20 0.22 0.25 0.22 0.21 0.26 0.35 0.43 0.58 0.63 0.64 0.66 0.69 0.71 0.74 0.84 0.89 0.85 0.87 0.93 0.96 0.97 0.99 1.00 1.04 1.13 1.12 1.10 1.02 1.10 1.30 1.34 1.42 1.46 1.65 1.53 1.43 1.43 1.45 1.46 1.54 1.64 1.69 1.52 1.46 1.45 1.46 1.50 1.57 1.55 1.55 1.60 1.68 1.74 1.70 1.71 1.70 1.70 1.72 1.74 1.78 1.80 1.84 1.88 1.94 1.98 1.98 1.94
0.25 0.25 0.32 0.35 0.34 0.40 0.40 0.35 0.32 0.31 0.26 0.23 0.19 0.19 0.27 0.28 0.27 0.23 0.19 0.20 0.22 0.24 0.30 0.36 0.41 0.41 0.48 0.53 0.68 0.64 0.63 0.66 0.82 0.78 0.80 0.85 0.90 0.89 0.86 0.92 1.02 1.04 1.12 1.10 1.17 1.12 1.17 1.14 1.27 1.30 1.42 1.50 1.58 1.60 1.40 1.40 1.43 1.39 1.48 1.59 1.61 1.68 1.65 1.58 1.55 1.57 1.55 1.55 1.54 1.59 1.68 1.76 1.73 1.70 1.71 1.76 1.75 1.77 1.77 1.78 1.81 1.86 1.89 1.93 1.97 1.95
0.29 0.23 0.30 0.36 0.37 0.42 0.42 0.40 0.31 0.28 0.26 0.22 0.23 0.30 0.23 0.25 0.25 0.32 0.31 0.26 0.28 0.28 0.30 0.44 0.47 0.58 0.58 0.59 0.67 0.61 0.63 0.70 0.72 0.79 0.88 0.90 0.96 0.90 0.88 0.97 1.05 1.06 1.06 1.08 1.09 1.15 1.07 1.11 1.28 1.33 1.29 1.40 1.52 1.68 1.52 1.44 1.42 1.36 1.37 1.43 1.56 1.52 1.64 1.62 1.60 1.55 1.54 1.56 1.60 1.63 1.66 1.66 1.68 1.70 1.69 1.72 1.73 1.74 1.71 1.74 1.77 1.80 1.84 1.92 1.97 1.98
0.30 0.19 0.26 0.36 0.38 0.39 0.42 0.41 0.30 0.34 0.36 0.37 0.40 0.32 0.34 0.27 0.29 0.28 0.31 0.33 0.31 0.27 0.28 0.34 0.47 0.54 0.68 0.69 0.74 0.82 0.80 0.81 0.87 0.88 0.96 0.99 1.01 1.03 1.03 1.07 1.06 1.08 1.12 1.13 1.15 1.20 1.13 1.26 1.33 1.39 1.39 1.45 1.50 1.48 1.44 1.45 1.38 1.26 1.28 1.26 1.31 1.52 1.62 1.59 1.58 1.53 1.48 1.53 1.55 1.57 1.61 1.63 1.67 1.71 1.70 1.68 1.67 1.68 1.69 1.73 1.78 1.82 1.86 1.86 1.95 2.00
0.29 0.32 0.22 0.32 0.39 0.38 0.41 0.38 0.36 0.40 0.42 0.42 0.41 0.41 0.44 0.40 0.42 0.43 0.43 0.38 0.35 0.30 0.33 0.34 0.34 0.46 0.67 0.77 0.77 0.80 0.86 0.87 0.99 1.08 1.12 1.12 1.14 1.13 1.17 1.20 1.13 1.17 1.19 1.19 1.22 1.17 1.20 1.39 1.48 1.56 1.60 1.58 1.64 1.68 1.50 1.39 1.30 1.24 1.24 1.26 1.31 1.36 1.46 1.51 1.55 1.56 1.54 1.54 1.52 1.52 1.55 1.58 1.65 1.67 1.73 1.70 1.72 1.70 1.74 1.78 1.78 1.82 1.87 1.93 1.91 1.99
0.26 0.36 0.31 0.38 0.37 0.37 0.51 0.49 0.45 0.44 0.44 0.42 0.38 0.36 0.36 0.36 0.36 0.34 0.34 0.42 0.40 0.39 0.38 0.35 0.37 0.58 0.81 0.94 0.87 0.95 0.95 0.99 1.04 1.08 1.06 1.14 1.17 1.21 1.28 1.32 1.34 1.22 1.26 1.27 1.26 1.26 1.31 1.51 1.64 1.71 1.71 1.68 1.64 1.59 1.48 1.43 1.44 1.39 1.36 1.34 1.36 1.33 1.36 1.43 1.50 1.54 1.56 1.59 1.59 1.54 1.53 1.56 1.62 1.65 1.67 1.71 1.70 1.69 1.72 1.77 1.80 1.84 1.89 1.89 1.89 1.90
0.37 0.39 0.40 0.39 0.43 0.43 0.50 0.53 0.53 0.50 0.46 0.42 0.38 0.33 0.33 0.35 0.36 0.37 0.31 0.35 0.38 0.39 0.42 0.40 0.38 0.68 0.98 0.98 0.99 0.98 0.97 1.04 1.11 1.13 1.11 1.18 1.22 1.23 1.28 1.30 1.33 1.32 1.30 1.37 1.40 1.36 1.41 1.49 1.59 1.65 1.71 1.65 1.65 1.62 1.59 1.61 1.52 1.51 1.53 1.50 1.49 1.48 1.42 1.43 1.47 1.56 1.58 1.61 1.62 1.62 1.62 1.59 1.57 1.61 1.64 1.66 1.71 1.75 1.74 1.75 1.78 1.81 1.85 1.85 1.85 1.91
0.46 0.40 0.37 0.38 0.45 0.50 0.57 0.62 0.54 0.55 0.48 0.40 0.40 0.39 0.42 0.44 0.45 0.40 0.38 0.42 0.36 0.36 0.35 0.37 0.40 0.58 0.91 1.01 0.97 1.00 1.04 1.06 1.12 1.08 1.06 1.11 1.13 1.16 1.24 1.31 1.32 1.29 1.29 1.36 1.46 1.41 1.31 1.52 1.63 1.65 1.60 1.64 1.64 1.60 1.58 1.59 1.58 1.58 1.56 1.54 1.53 1.50 1.54 1.55 1.56 1.56 1.62 1.65 1.66 1.71 1.71 1.71 1.72 1.68 1.67 1.69 1.74 1.73 1.74 1.71 1.81 1.79 1.75 1.77 1.77 1.77
0.39 0.55 0.43 0.42 0.40 0.42 0.46 0.51 0.51 0.51 0.49 0.48 0.48 0.52 0.49 0.49 0.48 0.48 0.46 0.45 0.37 0.39 0.38 0.36 0.38 0.53 0.88 1.02 1.01 1.01 0.98 0.98 0.99 1.03 1.04 1.02 1.09 1.15 1.20 1.27 1.25 1.24 1.20 1.17 1.34 1.47 1.54 1.67 1.57 1.54 1.50 1.49 1.51 1.51 1.54 1.53 1.54 1.56 1.54 1.54 1.53 1.56 1.59 1.60 1.62 1.60 1.64 1.66 1.68 1.72 1.77 1.73 1.76 1.75 1.72 1.70 1.72 1.70 1.82 1.80 1.81 1.83 1.69 1.67 1.69 1.78
0.45 0.44 0.44 0.37 0.37 0.40 0.41 0.39 0.46 0.50 0.54 0.57 0.53 0.50 0.48 0.46 0.46 0.45 0.41 0.46 0.38 0.41 0.41 0.42 0.49 0.73 0.95 1.03 0.96 0.92 0.95 0.89 0.94 0.95 1.01 1.07 1.09 1.07 1.14 1.20 1.27 1.28 1.28 1.21 1.22 1.30 1.43 1.54 1.52 1.48 1.45 1.43 1.41 1.44 1.47 1.52 1.54 1.58 1.58 1.57 1.60 1.55 1.54 1.57 1.57 1.60 1.61 1.63 1.63 1.66 1.74 1.72 1.68 1.73 1.72 1.71 1.68 1.64 1.66 1.72 1.74 1.74 1.87 1.79 1.69 1.77
0.42 0.41 0.41 0.41 0.40 0.40 0.44 0.47 0.52 0.54 0.56 0.52 0.53 0.52 0.50 0.48 0.47 0.45 0.44 0.42 0.40 0.44 0.41 0.58 0.52 0.69 0.75 0.81 0.83 0.85 0.90 0.96 0.95 1.08 1.02 0.98 0.99 1.08 1.10 1.14 1.15 1.22 1.31 1.35 1.36 1.42 1.46 1.48 1.48 1.41 1.37 1.35 1.33 1.37 1.41 1.39 1.40 1.42 1.47 1.52 1.58 1.63 1.63 1.61 1.52 1.55 1.59 1.63 1.67 1.65 1.71 1.71 1.68 1.74 1.78 1.74 1.69 1.65 1.67 1.71 1.71 1.73 1.73 1.81 1.65 1.64
0.42 0.38 0.42 0.45 0.49 0.49 0.50 0.51 0.55 0.55 0.49 0.49 0.48 0.48 0.49 0.45 0.44 0.41 0.39 0.38 0.46 0.40 0.37 0.62 0.70 0.58 0.65 0.72 0.75 0.83 0.89 0.93 1.01 0.98 0.96 1.04 1.01 1.07 1.05 1.02 1.08 1.09 1.15 1.17 1.18 1.22 1.26 1.30 1.32 1.39 1.40 1.38 1.39 1.37 1.37 1.34 1.35 1.35 1.34 1.38 1.46 1.57 1.62 1.65 1.64 1.61 1.57 1.55 1.60 1.67 1.68 1.68 1.68 1.74 1.75 1.74 1.72 1.73 1.69 1.69 1.74 1.65 1.64 1.61 1.71 1.62
0.42 0.37 0.43 0.45 0.44 0.45 0.48 0.50 0.52 0.52 0.51 0.49 0.47 0.45 0.43 0.44 0.41 0.38 0.42 0.45 0.44 0.38 0.35 0.59 0.58 0.56 0.60 0.73 0.78 0.82 0.83 0.86 0.85 0.92 1.00 1.04 1.01 1.02 0.98 1.00 1.03 1.02 1.01 1.02 1.04 1.07 1.11 1.11 1.11 1.14 1.18 1.26 1.32 1.38 1.40 1.34 1.28 1.30 1.37 1.41 1.40 1.41 1.53 1.59 1.61 1.61 1.62 1.62 1.59 1.61 1.66 1.64 1.61 1.60 1.62 1.67 1.68 1.67 1.63 1.61 1.63 1.68 1.64 1.58 1.51 1.55
0.45 0.40 0.41 0.42 0.41 0.43 0.45 0.46 0.49 0.46 0.45 0.43 0.42 0.44 0.44 0.43 0.40 0.41 0.43 0.47 0.45 0.40 0.40 0.41 0.57 0.56 0.69 0.77 0.83 0.84 0.87 0.88 0.92 0.91 0.90 0.94 0.92 0.95 1.04 1.01 0.94 0.90 0.94 0.95 0.95 0.97 1.00 1.00 1.01 1.00 1.04 1.04 1.06 1.14 1.18 1.31 1.35 1.35 1.37 1.36 1.44 1.39 1.45 1.48 1.50 1.54 1.58 1.59 1.62 1.66 1.67 1.67 1.62 1.58 1.60 1.62 1.63 1.62 1.61 1.60 1.61 1.65 1.67 1.63 1.59 1.58
0.44 0.42 0.43 0.41 0.37 0.36 0.39 0.42 0.42 0.42 0.41 0.38 0.39 0.41 0.44 0.43 0.37 0.38 0.43 0.46 0.50 0.52 0.55 0.56 0.59 0.62 0.82 0.87 0.88 0.90 0.90 0.90 0.98 0.93 0.97 1.01 1.01 1.00 0.94 0.91 0.91 0.92 0.93 0.96 0.98 0.97 0.96 0.97 0.97 0.95 0.94 0.96 0.93 0.98 0.96 0.99 1.10 1.24 1.26 1.25 1.26 1.24 1.39 1.42 1.32 1.43 1.51 1.52 1.58 1.62 1.62 1.59 1.56 1.55 1.54 1.59 1.62 1.64 1.63 1.64 1.67 1.68 1.66 1.62 1.64 1.61
0.44 0.41 0.44 0.40 0.33 0.31 0.36 0.38 0.37 0.35 0.34 0.33 0.34 0.39 0.44 0.42 0.35 0.37 0.42 0.52 0.48 0.46 0.50 0.51 0.47 0.61 0.76 0.88 0.92 0.97 0.95 0.96 0.95 1.00 1.01 1.02 0.99 0.97 0.93 0.91 0.92 0.95 0.95 0.98 0.98 0.99 1.02 0.98 0.97 0.93 0.92 0.90 0.89 0.85 0.84 0.84 0.85 0.94 1.04 1.07 1.09 1.09 1.21 1.32 1.28 1.22 1.33 1.44 1.49 1.53 1.53 1.52 1.49 1.45 1.46 1.52 1.54 1.58 1.60 1.59 1.57 1.63 1.70 1.67 1.68 1.67
0.36 0.33 0.30 0.31 0.29 0.28 0.34 0.35 0.34 0.35 0.32 0.29 0.31 0.38 0.49 0.49 0.50 0.51 0.52 0.55 0.67 0.65 0.52 0.55 0.54 0.71 0.79 0.87 0.85 0.90 0.96 0.97 0.96 0.98 0.98 1.02 1.03 1.01 0.98 0.99 0.97 0.98 0.99 0.98 0.97 0.96 1.04 1.01 0.98 0.98 0.97 1.00 1.00 0.95 0.92 0.89 0.85 0.87 0.91 0.94 1.01 1.01 1.06 1.08 1.13 1.16 1.11 1.22 1.24 1.33 1.43 1.45 1.44 1.44 1.44 1.46 1.49 1.53 1.53 1.50 1.51 1.56 1.62 1.65 1.67 1.63
0.32 0.30 0.28 0.30 0.25 0.25 0.27 0.27 0.28 0.25 0.20 0.29 0.60 0.53 0.48 0.46 0.51 0.50 0.50 0.62 0.70 0.68 0.72 0.77 0.77 0.79 0.83 0.86 0.90 0.91 0.93 0.97 0.97 0.98 0.98 0.93 0.95 0.91 0.93 0.95 0.92 0.90 0.90 0.94 0.93 0.96 0.97 0.94 0.94 0.98 1.02 1.04 1.02 0.93 0.92 0.92 0.92 0.95 0.92 0.90 0.89 0.90 0.95 0.97 0.99 1.00 1.06 1.12 1.10 1.09 1.17 1.26 1.32 1.33 1.36 1.41 1.44 1.45 1.44 1.43 1.43 1.50 1.61 1.62 1.60 1.60
0.23 0.23 0.23 0.26 0.25 0.24 0.26 0.24 0.20 0.17 0.22 0.59 0.64 0.61 0.54 0.55 0.55 0.53 0.59 0.63 0.72 0.75 0.75 0.81 0.84 0.90 0.89 0.87 0.96 0.98 1.03 1.01 1.05 1.00 1.02 0.98 0.95 0.88 0.84 0.85 0.86 0.85 0.86 0.87 0.88 0.89 0.90 0.90 0.94 0.99 1.01 1.00 0.94 0.89 0.91 0.95 1.00 1.00 0.97 0.90 0.81 0.86 0.87 0.89 0.89 0.90 0.93 1.00 1.04 0.99 0.96 0.99 1.07 1.17 1.25 1.32 1.37 1.40 1.39 1.39 1.42 1.44 1.45 1.51 1.54 1.53
0.30 0.30 0.29 0.25 0.25 0.27 0.25 0.24 0.19 0.20 0.50 0.59 0.67 0.64 0.60 0.53 0.60 0.53 0.54 0.73 0.75 0.81 0.91 0.87 0.87 0.95 0.97 0.97 1.02 1.10 1.07 1.07 1.04 1.05 1.02 1.00 0.92 0.89 0.87 0.84 0.86 0.87 0.87 0.88 0.89 0.92 0.91 0.95 1.00 1.00 0.98 0.95 0.89 0.91 0.98 1.02 1.04 0.98 0.93 0.92 0.90 0.90 0.89 0.86 0.88 0.89 0.93 0.95 0.98 0.94 0.91 0.86 0.86 0.95 1.07 1.19 1.24 1.27 1.31 1.36 1.39 1.39 1.43 1.43 1.47 1.56
0.38 0.35 0.28 0.21 0.25 0.23 0.27 0.28 0.27 0.41 0.35 0.50 0.57 0.64 0.59 0.57 0.65 0.63 0.54 0.69 0.89 0.90 0.90 0.89 0.87 0.93 0.90 0.93 0.96 1.01 1.04 1.01 0.93 1.03 1.05 1.02 1.03 0.98 0.95 0.92 0.91 0.91 0.91 0.91 0.92 0.93 0.94 1.02 1.00 0.96 0.90 0.85 0.90 0.94 0.98 0.99 0.95 0.94 0.91 0.88 0.91 0.91 0.89 0.89 0.86 0.88 0.90 0.93 0.98 0.98 0.92 0.82 0.82 0.90 0.90 0.99 1.08 1.11 1.17 1.25 1.33 1.39 1.46 1.43 1.46 1.51
0.40 0.28 0.39 0.37 0.37 0.33 0.27 0.25 0.26 0.27 0.28 0.51 0.65 0.74 0.74 0.71 0.68 0.66 0.53 0.63 0.79 0.86 0.87 0.89 0.84 0.85 0.86 0.89 0.93 0.99 0.98 0.87 0.80 0.84 1.01 1.04 1.01 0.97 0.95 0.96 0.97 0.94 0.92 0.92 0.94 0.91 0.93 0.93 0.88 0.81 0.79 0.87 0.91 0.93 0.91 0.90 0.90 0.88 0.84 0.83 0.82 0.82 0.84 0.83 0.85 0.89 0.90 0.92 0.97 0.98 0.97 0.92 0.82 0.79 0.88 0.92 0.95 1.04 1.11 1.21 1.30 1.36 1.45 1.44 1.46 1.51
0.46 0.38 0.35 0.33 0.33 0.33 0.33 0.29 0.29 0.32 0.49 0.65 0.65 0.68 0.71 0.76 0.65 0.71 0.52 0.54 0.84 0.87 0.92 0.88 0.86 0.87 0.88 0.89 0.91 0.90 0.82 0.72 0.77 0.84 0.93 0.97 0.96 0.94 0.93 0.93 0.91 0.89 0.89 0.90 0.88 0.85 0.87 0.82 0.76 0.78 0.83 0.83 0.80 0.83 0.84 0.84 0.83 0.80 0.78 0.74 0.75 0.76 0.76 0.79 0.83 0.86 0.88 0.88 0.90 0.92 0.95 0.97 0.92 0.84 0.84 0.88 0.90 0.98 1.09 1.16 1.23 1.32 1.39 1.45 1.50 1.53
0.48 0.43 0.41 0.35 0.32 0.31 0.28 0.30 0.33 0.49 0.53 0.64 0.69 0.70 0.74 0.74 0.66 0.58 0.38 0.48 0.80 0.89 0.90 0.90 0.89 0.91 0.91 0.90 0.89 0.83 0.77 0.69 0.76 0.85 0.94 0.93 0.92 0.94 0.92 0.89 0.86 0.85 0.87 0.88 0.87 0.87 0.81 0.78 0.78 0.76 0.75 0.72 0.75 0.79 0.81 0.82 0.79 0.74 0.73 0.77 0.79 0.79 0.82 0.88 0.92 0.95 0.95 0.95 0.95 0.94 0.93 0.96 0.96 0.91 0.86 0.85 0.91 0.95 0.97 1.10 1.22 1.28 1.31 1.36 1.46 1.52
0.50 0.47 0.45 0.39 0.39 0.38 0.37 0.37 0.53 0.57 0.70 0.74 0.73 0.78 0.77 0.72 0.62 0.44 0.40 0.66 0.87 0.91 0.93 0.92 0.91 0.90 0.89 0.87 0.86 0.79 0.84 0.86 0.87 0.90 0.91 0.92 0.91 0.90 0.89 0.88 0.88 0.86 0.84 0.83 0.83 0.83 0.79 0.80 0.78 0.76 0.74 0.73 0.76 0.77 0.78 0.76 0.74 0.76 0.81 0.83 0.84 0.83 0.90 0.95 0.97 0.97 0.97 0.99 0.99 0.99 0.99 0.98 0.97 0.94 0.91 0.91 0.89 0.94 0.98 0.98 1.05 1.20 1.28 1.32 1.39 1.46
0.46 0.53 0.52 0.46 0.40 0.39 0.43 0.41 0.52 0.58 0.73 0.78 0.82 0.83 0.85 0.66 0.51 0.51 0.75 0.94 0.90 0.91 0.93 0.91 0.89 0.90 0.89 0.86 0.84 0.85 0.85 0.87 0.88 0.86 0.84 0.85 0.84 0.82 0.84 0.84 0.84 0.83 0.85 0.84 0.81 0.79 0.79 0.79 0.79 0.78 0.77 0.79 0.77 0.76 0.77 0.81 0.81 0.83 0.85 0.85 0.84 0.90 0.98 1.01 1.02 1.02 1.01 1.01 1.02 1.03 1.02 1.01 0.99 0.99 0.97 0.94 0.94 0.94 0.98 1.05 1.07 1.10 1.22 1.31 1.35 1.37
0.38 0.35 0.40 0.43 0.50 0.47 0.47 0.46 0.48 0.44 0.65 0.78 0.80 0.80 0.83 0.65 0.68 0.86 0.91 0.88 0.87 0.87 0.85 0.87 0.87 0.87 0.84 0.81 0.84 0.84 0.83 0.81 0.79 0.80 0.82 0.81 0.77 0.75 0.76 0.77 0.77 0.77 0.76 0.75 0.75 0.79 0.80 0.80 0.80 0.79 0.78 0.78 0.79 0.81 0.86 0.86 0.84 0.84 0.86 0.85 0.90 0.98 1.00 1.01 1.02 1.02 1.02 1.02 1.03 1.04 1.05 1.06 1.04 1.03 1.02 0.98 0.97 0.95 0.95 1.00 1.02 1.03 1.12 1.27 1.32 1.35
0.47 0.34 0.37 0.46 0.48 0.38 0.41 0.43 0.47 0.62 0.71 0.76 0.73 0.62 0.76 0.78 0.86 0.86 0.83 0.84 0.88 0.88 0.84 0.84 0.85 0.81 0.80 0.79 0.76 0.77 0.77 0.75 0.78 0.80 0.79 0.75 0.75 0.75 0.77 0.77 0.77 0.77 0.76 0.78 0.80 0.81 0.83 0.81 0.80 0.78 0.78 0.79 0.85 0.87 0.89 0.89 0.85 0.87 0.86 0.87 0.98 1.01 1.02 1.02 1.03 1.04 1.03 1.04 1.05 1.07 1.09 1.10 1.10 1.08 1.05 1.03 1.01 0.98 0.96 0.97 1.01 1.01 1.06 1.16 1.23 1.26
0.56 0.48 0.47 0.38 0.47 0.47 0.48 0.59 0.69 0.73 0.70 0.71 0.72 0.74 0.79 0.81 0.85 0.86 0.86 0.86 0.84 0.83 0.83 0.79 0.80 0.81 0.80 0.76 0.75 0.73 0.72 0.75 0.75 0.75 0.73 0.74 0.75 0.75 0.75 0.75 0.77 0.78 0.77 0.78 0.80 0.83 0.83 0.81 0.77 0.79 0.82 0.85 0.86 0.89 0.91 0.93 0.91 0.90 0.90 0.97 1.02 1.01 1.01 1.02 1.02 1.01 1.01 1.04 1.06 1.07 1.10 1.12 1.13 1.13 1.10 1.07 1.05 1.00 0.97 0.96 1.00 1.00 1.05 1.11 1.17 1.21
0.60 0.55 0.55 0.42 0.53 0.61 0.63 0.62 0.69 0.66 0.65 0.67 0.69 0.75 0.81 0.83 0.83 0.82 0.80 0.80 0.83 0.85 0.84 0.77 0.78 0.79 0.78 0.81 0.74 0.76 0.75 0.75 0.73 0.75 0.76 0.78 0.77 0.76 0.78 0.79 0.81 0.82 0.82 0.82 0.82 0.85 0.84 0.84 0.84 0.84 0.83 0.86 0.90 0.92 0.95 0.96 0.97 0.93 0.96 1.03 1.05 1.06 1.05 1.04 1.03 1.02 1.03 1.05 1.07 1.09 1.11 1.10 1.11 1.13 1.14 1.12 1.09 1.07 1.06 1.03 1.00 0.99 1.03 1.03 1.06 1.14
0.61 0.57 0.51 0.42 0.60 0.46 0.45 0.70 0.66 0.72 0.71 0.73 0.78 0.83 0.84 0.84 0.82 0.82 0.79 0.80 0.79 0.79 0.76 0.81 0.80 0.78 0.79 0.78 0.76 0.75 0.75 0.77 0.76 0.77 0.77 0.76 0.76 0.76 0.77 0.77 0.78 0.78 0.79 0.79 0.83 0.85 0.86 0.87 0.86 0.84 0.85 0.85 0.92 0.95 0.99 1.00 1.02 1.04 1.05 1.06 1.08 1.09 1.08 1.07 1.06 1.05 1.06 1.07 1.08 1.09 1.10 1.09 1.09 1.10 1.12 1.14 1.13 1.11 1.08 1.07 1.07 1.06 1.06 1.10 1.06 1.09
0.58 0.54 0.52 0.50 0.52 0.51 0.62 0.67 0.72 0.75 0.76 0.80 0.80 0.76 0.75 0.81 0.81 0.84 0.83 0.84 0.82 0.82 0.81 0.79 0.79 0.77 0.80 0.77 0.80 0.77 0.77 0.78 0.78 0.77 0.76 0.74 0.74 0.76 0.76 0.76 0.77 0.78 0.82 0.84 0.85 0.88 0.87 0.85 0.83 0.84 0.87 0.90 0.97 1.01 1.03 1.04 1.05 1.07 1.09 1.10 1.13 1.12 1.10 1.08 1.08 1.07 1.06 1.06 1.07 1.07 1.10 1.13 1.14 1.16 1.15 1.16 1.17 1.14 1.12 1.10 1.10 1.08 1.05 1.08 1.11 1.10
0.59 0.63 0.56 0.53 0.44 0.55 0.66 0.69 0.70 0.68 0.73 0.74 0.81 0.84 0.84 0.87 0.88 0.85 0.82 0.78 0.79 0.79 0.79 0.80 0.80 0.81 0.80 0.81 0.83 0.83 0.79 0.80 0.79 0.78 0.76 0.76 0.76 0.75 0.76 0.78 0.80 0.80 0.81 0.82 0.85 0.86 0.83 0.84 0.86 0.91 0.96 0.97 1.01 1.03 1.04 1.05 1.08 1.10 1.11 1.11 1.11 1.12 1.10 1.09 1.08 1.07 1.09 1.13 1.15 1.14 1.15 1.16 1.18 1.21 1.22 1.21 1.22 1.20 1.17 1.11 1.10 1.13 1.15 1.21 1.27 1.24
0.60 0.57 0.57 0.58 0.52 0.56 0.58 0.64 0.68 0.59 0.61 0.73 0.77 0.81 0.82 0.84 0.83 0.78 0.78 0.78 0.79 0.79 0.81 0.79 0.80 0.84 0.84 0.83 0.82 0.80 0.76 0.76 0.77 0.77 0.76 0.77 0.77 0.78 0.78 0.78 0.78 0.79 0.82 0.87 0.87 0.85 0.87 0.92 0.96 0.95 0.96 1.00 1.04 1.05 1.05 1.05 1.07 1.09 1.09 1.09 1.11 1.13 1.10 1.11 1.13 1.13 1.11 1.11 1.13 1.16 1.20 1.21 1.19 1.18 1.20 1.19 1.18 1.22 1.23 1.25 1.22 1.18 1.13 1.13 1.25 1.28
0.56 0.56 0.55 0.48 0.47 0.55 0.69 0.72 0.74 0.73 0.73 0.73 0.74 0.77 0.76 0.81 0.78 0.77 0.78 0.79 0.82 0.83 0.82 0.80 0.77 0.77 0.75 0.76 0.77 0.76 0.74 0.74 0.74 0.75 0.73 0.73 0.74 0.76 0.76 0.77 0.79 0.83 0.84 0.86 0.87 0.90 0.93 0.95 0.98 0.98 0.98 1.01 1.06 1.06 1.06 1.05 1.05 1.05 1.06 1.10 1.12 1.15 1.17 1.19 1.18 1.16 1.15 1.16 1.16 1.18 1.20 1.19 1.15 1.13 1.15 1.18 1.18 1.19 1.16 1.13 1.17 1.21 1.23 1.23 1.21 1.20
Wind_Speed
5 6 7 7 7 8 8 7 8 8 8 8 8 8 10 10 6 4 5 7 10 12 8 8 10 11 9 4 3 3 5 5 4 6 5 3 6 7 5 4 5 5 4 5 5 4 4 3 3 3 4 4 5 6 6 7 7 8 9 9 10 10 11 11 11 12 12 13 13 13 13 13 13 13 13 12 12 13 13 13 12 12 11 11 11 11
5 7 7 7 8 8 8 7 8 9 9 9 8 8 9 8 5 3 5 7 10 11 7 8 11 11 8 3 3 2 4 7 7 6 6 4 5 6 4 3 5 5 4 4 5 4 4 3 4 4 4 4 5 6 7 8 8 8 8 9 9 9 10 10 11 12 13 13 13 13 13 13 12 12 13 12 12 13 13 13 13 12 12 12 12 12
6 7 7 7 7 7 7 7 8 8 8 8 8 8 8 9 7 5 6 7 8 9 6 8 12 10 5 1 1 3 6 8 8 6 6 5 4 4 4 5 5 5 4 4 5 4 4 4 4 4 5 5 5 6 7 7 8 8 8 8 8 8 9 9 10 11 12 13 13 13 13 13 12 12 12 12 12 13 13 13 13 12 13 13 12 12
6 6 6 6 7 7 7 8 8 9 8 8 7 8 9 10 8 7 8 7 6 8 7 8 12 9 3 1 3 5 7 8 7 6 5 5 4 4 5 6 6 5 4 5 6 5 4 4 3 4 5 5 6 6 6 7 7 8 8 8 9 8 9 9 9 11 11 11 12 13 13 12 13 12 12 12 12 13 13 13 12 13 13 13 13 13
9 9 8 7 7 8 9 9 9 8 7 8 9 9 10 11 10 10 9 8 9 8 5 8 13 8 3 3 5 6 6 6 7 7 6 6 6 4 5 5 6 7 6 7 7 6 5 4 3 4 5 6 6 7 7 7 7 7 8 9 9 10 10 10 10 11 11 11 11 12 12 12 12 13 13 13 13 13 13 13 12 13 13 13 13 13
11 11 10 9 8 9 9 9 9 8 8 9 9 10 12 11 10 11 10 11 11 7 4 9 11 4 1 2 4 5 5 5 6 8 7 7 6 5 5 5 6 7 7 8 8 7 7 6 4 5 6 6 6 7 7 7 7 8 8 9 10 10 10 10 10 11 11 11 11 11 12 12 12 12 12 12 13 13 14 14 13 13 13 12 12 12
11 10 9 9 9 8 9 9 8 8 8 7 7 9 11 9 7 11 12 12 11 8 8 10 7 2 2 3 4 4 4 4 5 6 5 6 5 5 4 5 6 7 7 8 9 8 8 8 5 5 6 6 6 7 7 8 8 8 9 9 9 9 10 10 10 9 9 10 11 11 12 12 12 11 11 12 12 13 14 14 14 13 13 12 11 11
8 11 9 9 9 8 9 8 7 7 8 7 8 9 11 10 10 13 13 11 10 10 11 9 6 4 5 4 4 4 4 3 3 4 4 4 4 4 4 5 6 8 7 8 9 7 7 7 5 3 5 6 6 7 7 8 9 9 8 8 8 10 11 12 10 9 10 10 10 11 12 12 12 11 11 12 12 13 13 14 14 14 13 13 12 11
4 8 10 9 9 8 8 7 7 7 9 10 11 11 11 12 13 13 12 11 10 11 10 7 7 7 6 3 2 3 3 2 3 5 5 4 4 3 4 6 7 8 8 7 7 6 5 5 4 3 4 5 6 7 7 7 8 8 7 8 10 11 12 11 11 10 10 10 11 10 11 12 12 12 12 12 13 14 14 14 14 13 13 13 12 11
6 6 7 8 9 8 9 9 9 8 10 12 13 12 12 12 12 11 10 10 9 9 9 8 9 8 5 3 3 4 3 1 3 5 5 4 4 4 4 6 7 7 8 8 8 7 7 7 5 4 4 6 7 7 6 7 7 7 7 9 10 10 10 10 10 10 10 10 11 11 11 11 12 12 12 12 13 14 14 13 13 13 13 13 13 12
10 9 8 8 10 10 11 11 11 10 11 12 12 12 12 11 11 10 8 8 8 7 8 9 10 7 4 4 5 4 3 2 2 5 5 3 5 6 5 6 7 7 6 7 8 7 8 9 8 6 5 6 8 8 7 7 7 7 8 9 9 10 10 11 10 10 10 10 10 10 10 10 11 11 11 11 12 12 12 12 12 13 13 14 13 12
12 12 10 9 10 11 12 11 11 11 10 9 9 9 10 10 9 8 6 6 7 7 7 9 10 6 3 4 3 1 1 2 3 5 4 3 4 5 6 7 8 8 8 8 8 8 8 10 10 8 7 7 8 8 9 8 8 8 9 9 9 10 11 11 10 10 10 10 10 10 9 10 10 10 10 10 10 9 10 11 11 12 13 13 14 13
12 12 10 9 9 9 10 10 10 9 9 8 8 8 8 8 7 5 6 6 7 8 9 9 7 3 2 3 2 1 3 4 5 5 3 3 4 5 5 6 7 8 9 9 9 9 9 9 10 10 8 8 9 9 9 10 10 8 9 9 10 10 11 11 10 10 10 10 10 9 9 9 9 9 9 9 9 9 9 9 10 11 12 13 13 13
8 8 9 8 7 6 6 8 8 8 9 8 7 8 8 8 8 7 8 8 8 9 10 8 5 2 2 2 2 1 2 5 6 5 4 4 5 5 5 5 7 8 8 9 10 10 9 8 10 11 10 9 9 9 10 11 11 9 9 9 10 11 11 10 10 10 10 9 10 9 9 9 8 8 8 8 8 8 9 9 9 11 11 12 13 13
6 5 7 6 3 4 5 7 8 9 9 8 8 7 6 7 9 9 8 7 7 7 7 6 5 4 3 2 2 2 4 5 4 4 4 5 5 5 5 6 7 8 8 9 9 9 8 9 10 11 10 10 9 9 10 11 11 11 9 9 11 11 11 11 10 10 9 9 9 9 9 8 8 8 8 8 8 8 9 9 9 10 11 12 13 14
8 6 5 5 4 6 9 8 7 7 7 8 8 6 5 8 9 7 7 8 9 8 6 5 3 2 2 3 2 3 4 3 3 3 4 6 6 5 6 7 7 8 9 9 8 8 9 10 10 11 11 10 9 9 10 11 12 12 10 10 10 11 11 11 11 10 9 9 10 9 9 9 9 9 8 8 9 9 9 9 9 10 11 12 13 13
9 6 4 7 10 11 11 9 8 8 8 8 6 4 7 10 9 8 8 9 9 8 6 5 2 3 2 2 3 3 3 3 3 4 5 7 7 6 7 8 8 9 9 8 8 8 9 10 10 11 11 11 10 10 10 10 11 12 11 10 10 10 11 11 11 10 10 10 11 10 10 9 9 9 9 9 9 9 9 9 9 10 10 11 13 13
8 9 7 9 12 10 8 9 10 10 9 8 8 8 10 9 8 8 7 7 7 7 5 2 3 4 4 4 5 4 4 5 5 6 7 7 8 8 9 9 9 9 9 9 8 9 9 9 11 10 10 11 10 9 10 10 10 11 11 11 11 10 10 11 11 11 10 11 11 10 10 9 9 9 9 9 9 9 9 9 9 9 10 11 12 13
7 9 7 6 8 7 5 8 9 10 9 9 10 10 9 7 8 8 7 7 7 7 5 1 2 4 7 6 7 7 7 8 8 9 9 8 8 9 10 10 10 10 11 11 10 10 10 11 10 9 9 10 10 9 9 10 11 11 11 11 12 11 10 11 11 11 11 11 11 11 10 10 10 9 9 9 9 10 10 9 9 9 9 10 11 13
7 8 8 6 6 6 6 6 6 5 7 8 8 8 7 7 8 7 7 8 8 8 7 4 3 6 7 8 9 9 9 10 9 9 9 9 9 10 11 11 11 11 12 12 11 11 12 13 11 10 9 10 10 10 10 10 11 12 12 11 11 11 11 11 12 11 12 12 11 11 11 10 10 10 9 9 9 10 10 10 9 9 9 10 11 12
7 7 8 7 6 6 7 6 4 4 4 6 6 7 7 7 7 7 6 7 10 9 8 9 9 8 9 10 10 9 10 10 10 9 10 10 10 10 11 12 12 12 13 13 12 12 13 14 13 11 9 9 10 11 10 11 12 12 12 12 12 12 11 11 11 12 12 13 12 12 11 11 10 10 10 10 10 10 10 10 10 9 9 9 11 12
7 7 7 7 6 5 5 5 5 7 7 7 7 8 8 9 9 9 8 8 10 10 10 11 11 8 8 10 9 9 9 9 10 10 10 10 10 10 10 11 12 13 14 14 13 13 15 15 13 12 9 9 10 11 11 12 13 13 13 13 13 13 13 12 12 12 12 13 13 13 12 11 11 10 10 10 10 10 10 10 10 9 9 9 10 11
6 7 8 8 7 7 7 7 7 8 9 10 10 9 9 9 8 9 9 10 11 12 12 13 10 7 8 9 9 10 10 9 9 10 10 10 10 11 11 12 12 13 14 14 14 15 16 14 12 11 10 10 11 11 12 13 13 14 14 14 14 14 14 14 13 13 13 14 13 13 12 12 12 11 11 11 11 11 10 10 10 9 9 9 9 9
6 7 8 9 9 10 11 10 8 8 8 8 8 8 8 7 8 10 11 12 12 12 13 13 10 8 10 10 10 11 10 9 10 10 11 11 11 11 12 12 12 13 14 14 14 15 15 13 12 11 11 11 12 12 13 13 14 14 15 15 15 15 15 15 14 13 14 14 14 14 13 13 13 12 12 12 11 11 11 11 10 9 9 9 8 9
6 6 7 8 7 8 10 10 8 7 7 7 7 8 8 8 10 11 11 12 12 12 14 13 10 9 10 10 11 11 11 11 12 11 11 12 11 11 11 11 12 13 14 15 14 15 14 13 11 12 12 12 13 14 14 15 15 15 15 16 16 16 16 16 15 15 14 14 15 15 15 14 14 13 13 13 12 12 12 12 11 10 10 9 9 9
8 7 7 8 6 7 8 8 8 8 7 8 9 10 10 12 12 12 12 12 12 13 14 13 10 8 8 9 10 12 12 13 13 11 11 11 11 12 12 11 11 12 13 13 13 14 14 13 12 12 13 14 14 15 15 15 16 16 16 17 17 17 17 16 16 16 16 16 16 16 16 15 15 15 14 14 13 13 13 12 12 11 11 10 10 11
10 10 10 10 10 10 11 10 11 11 10 11 13 14 14 15 14 13 13 13 13 14 14 11 9 8 10 10 11 11 12 12 11 10 10 11 11 11 11 11 12 12 13 13 12 13 14 13 13 13 14 14 15 15 16 16 16 17 17 17 17 17 17 17 17 17 17 17 17 18 17 17 16 16 15 15 14 14 14 13 13 13 13 12 11 12
10 11 12 13 13 13 13 13 13 14 14 15 16 16 16 16 15 15 15 14 15 15 13 10 10 11 11 11 11 11 11 11 10 11 11 11 11 12 12 12 12 13 13 13 14 14 14 14 14 15 15 15 16 16 16 17 18 18 18 18 18 18 18 18 18 18 18 19 19 19 19 18 18 17 17 17 16 16 15 15 14 14 14 13 13 13
10 11 12 13 14 14 15 15 15 15 16 16 17 17 17 17 16 16 16 15 16 16 15 12 12 12 11 10 10 10 10 10 10 10 11 11 12 14 14 13 13 13 14 14 15 15 16 15 16 16 16 16 17 17 17 18 19 19 19 19 19 19 19 19 20 20 21 21 21 20 19 19 19 19 19 18 18 18 17 17 16 16 15 14 14 14
9 11 12 14 16 16 17 17 17 17 18 18 18 18 17 17 18 17 16 16 17 17 17 15 12 11 11 10 10 10 11 11 11 11 12 13 14 14 14 13 13 14 14 15 16 17 17 17 17 17 18 18 19 19 19 20 20 21 20 20 21 21 21 21 22 22 22 22 21 20 20 20 20 20 20 19 19 19 19 18 18 17 17 16 15 14
9 10 12 13 15 17 17 17 17 17 18 18 18 18 17 18 19 17 15 14 15 15 14 14 13 12 11 11 10 11 12 12 12 13 13 14 14 13 13 13 14 16 16 16 17 18 18 18 19 19 19 20 20 21 21 21 21 21 22 22 22 22 22 22 23 23 22 21 21 21 21 21 21 21 21 20 21 21 20 20 19 19 18 17 16 16
11 12 12 13 14 15 15 16 16 17 17 17 17 16 15 15 15 14 12 12 12 13 15 15 14 12 12 11 12 13 13 12 13 13 13 14 14 14 14 14 15 17 17 17 18 18 18 18 18 19 20 20 21 21 22 23 23 22 23 23 23 23 22 22 23 23 23 22 22 21 21 21 22 22 21 21 21 21 21 20 20 20 19 18 18 18
13 13 13 14 14 15 15 16 17 17 17 16 14 12 10 11 11 11 11 11 12 13 14 14 13 13 13 13 13 13 12 12 13 14 14 15 15 15 15 16 17 17 17 18 18 18 18 18 19 20 20 21 22 23 24 24 24 24 25 25 25 25 24 23 23 23 23 23 23 23 23 22 22 22 22 21 21 21 21 21 20 20 20 20 20 20
14 15 14 13 14 15 16 17 17 16 15 12 10 9 10 11 12 12 12 12 12 13 13 12 13 13 13 13 13 13 13 13 14 14 14 15 16 16 16 16 16 17 17 18 19 19 19 21 22 21 21 22 24 25 26 26 26 26 26 26 27 26 26 25 25 25 25 24 24 24 24 23 23 23 22 22 22 22 21 21 21 21 21 21 21 21
14 14 14 13 14 14 15 15 15 13 11 9 7 8 10 11 12 12 12 12 13 13 13 12 12 12 13 14 13 13 13 14 15 15 15 15 15 16 17 17 17 18 19 19 20 20 21 23 23 23 24 25 26 28 28 27 27 26 26 27 28 27 27 27 27 26 26 26 26 25 25 24 24 24 24 24 23 23 23 22 22 22 22 23 22 21
12 12 13 13 13 13 13 13 12 11 9 8 8 9 10 11 11 12 12 11 12 13 12 12 12 12 14 14 13 12 13 14 15 15 16 17 16 16 18 18 19 19 20 20 20 21 23 24 23 24 26 28 28 29 28 27 27 27 27 28 28 28 28 28 28 27 27 27 27 26 26 26 26 26 26 26 26 25 25 24 24 24 24 24 23 23
11 11 11 11 11 12 13 12 13 12 10 8 9 10 11 11 12 12 11 11 12 13 13 13 13 13 13 14 13 12 13 15 16 16 17 17 17 17 19 19 20 21 22 22 23 24 25 25 26 28 29 29 29 28 27 27 28 28 28 28 28 28 28 29 28 28 28 28 28 28 28 28 27 27 27 27 27 27 27 26 26 25 25 24 24 24
10 10 10 10 10 11 12 13 13 13 10 9 10 11 11 12 12 12 12 12 13 13 12 13 13 13 14 14 13 13 14 15 16 17 17 17 18 19 20 21 22 23 24 25 26 27 27 27 29 30 30 30 29 28 28 28 28 28 28 28 28 28 28 28 28 29 29 29 29 29 29 29 29 28 28 28 28 28 28 27 27 26 26 25 25 25
9 9 9 11 11 11 12 13 11 10 9 10 12 12 12 13 13 13 13 13 14 14 13 14 14 14 14 15 16 16 16 16 16 17 18 19 20 22 23 23 25 26 26 27 28 29 29 30 31 30 29 29 29 28 28 28 28 28 28 28 28 28 28 28 28 28 28 29 29 29 29 29 29 29 29 29 28 28 28 28 28 27 27 26 26 26
7 7 8 10 11 11 12 12 10 8 8 11 13 13 14 14 15 16 14 13 14 15 14 14 14 14 15 16 17 17 17 17 17 18 20 21 23 24 25 26 27 28 28 28 29 30 30 31 30 29 29 29 29 29 29 28 28 29 28 28 28 28 28 28 28 28 29 29 29 29 29 29 29 30 30 30 30 30 29 29 28 28 28 27 27 27
8 8 9 10 11 12 12 11 9 8 10 13 15 14 16 16 16 15 14 13 15 15 14 14 15 15 17 18 18 18 18 19 20 21 23 24 25 26 27 28 28 28 28 29 29 30 30 30 29 29 29 29 29 29 29 29 29 29 29 29 29 29 29 29 29 30 30 30 30 30 30 30 30 30 30 30 31 31 31 30 30 29 29 28 28 28
10 9 10 11 11 11 12 11 9 8 11 15 15 15 16 16 14 13 14 15 15 15 15 15 16 17 19 19 19 19 20 22 23 24 25 26 27 28 28 28 28 28 28 29 29 29 29 28 29 29 29 29 29 30 29 29 29 29 29 29 29 30 30 30 30 31 31 31 31 31 31 31 31 30 30 30 31 31 31 31 31 31 30 29 29 29
10 10 10 10 10 11 12 12 10 10 13 15 15 15 15 14 13 14 15 15 15 16 17 17 18 19 20 21 21 22 24 25 26 26 26 27 28 28 28 28 28 28 28 28 29 28 28 28 29 29 29 29 29 29 29 29 30 30 30 30 30 30 30 31 31 31 31 31 31 31 31 32 32 31 31 31 31 31 32 32 32 32 32 31 30 30
9 10 11 10 10 11 12 11 10 12 13 14 13 14 14 13 14 15 16 16 17 18 18 19 20 21 22 22 23 25 26 26 26 26 27 28 28 28 28 28 28 28 28 28 28 29 29 29 30 30 29 29 29 29 29 30 30 30 30 30 30 31 31 31 31 31 31 31 31 31 31 32 32 32 32 32 32 32 32 32 32 32 32 32 31 31
9 10 11 12 12 12 11 12 12 13 14 14 13 13 14 14 15 16 16 17 18 19 20 21 22 23 24 25 25 26 26 27 27 28 28 28 28 28 28 28 28 28 29 29 29 29 30 30 30 30 30 29 29 29 29 30 30 31 31 31 31 31 31 31 31 31 31 31 31 31 31 32 32 32 32 33 32 32 32 32 32 33 32 32 32 32
9 10 12 12 13 12 12 13 13 13 14 15 15 15 15 16 17 17 18 19 20 21 22 23 24 25 26 26 26 26 26 27 28 28 28 28 28 28 28 29 29 29 29 29 29 30 30 30 30 30 30 30 30 30 29 30 30 31 31 31 31 31 31 31 31 31 31 31 31 31 31 32 32 32 32 32 32 32 32 32 32 32 32 31 31 31
10 12 12 11 12 13 13 13 13 14 15 15 15 16 17 17 18 18 19 20 21 22 23 24 25 26 26 27 27 27 27 28 28 28 28 28 28 28 29 29 29 29 29 30 30 30 30 30 30 30 30 30 30 30 30 30 30 30 30 30 30 30 30 31 31 31 31 31 31 31 31 31 32 32 32 32 32 32 32 32 32 32 32 31 31 31
11 13 12 11 12 12 12 13 14 14 14 15 16 17 18 18 19 19 20 21 22 23 23 24 25 26 26 26 27 27 28 28 28 28 28 28 28 28 29 29 29 29 29 30 30 30 30 30 30 31 31 30 30 30 30 30 29 29 29 30 30 30 30 30 31 31 31 31 31 31 31 31 31 31 31 31 31 31 31 31 31 31 31 31 30 30
13 13 14 13 13 12 12 14 15 14 14 15 17 17 18 19 20 22 22 23 23 23 24 25 26 26 26 27 27 27 28 28 28 28 29 29 28 28 29 29 30 30 30 30 30 30 30 30 30 30 30 30 30 30 29 29 29 28 29 29 30 30 29 30 30 31 31 31 30 30 30 29 29 29 29 29 29 30 30 30 30 30 30 30 30 30
12 13 14 14 14 13 13 15 15 15 16 17 18 19 20 20 22 23 23 23 23 24 25 26 26 27 27 27 27 28 28 28 28 28 28 29 29 29 29 30 30 30 30 30 30 30 30 30 30 30 30 29 29 29 28 28 28 28 29 29 29 28 29 29 30 30 30 30 30 29 29 29 29 29 29 29 29 29 29 29 29 30 30 30 30 30
12 13 14 14 14 14 15 15 16 16 17 18 20 20 21 21 22 23 23 23 24 25 26 26 27 27 27 28 28 28 27 28 28 29 29 29 29 29 30 30 30 30 30 30 30 30 30 30 30 29 29 28 28 27 27 27 28 28 28 28 27 28 28 29 29 29 29 29 29 29 29 29 29 29 29 29 29 29 29 29 29 30 30 30 30 30
Wind_Direction
241 264 273 286 287 298 320 308 299 312 311 305 302 297 295 299 318 352 331 328 335 328 318 327 331 327 322 298 270 319 343 344 332 316 314 324 327 323 325 336 339 322 302 307 303 289 302 311 300 290 285 279 274 273 273 270 267 267 267 265 264 265 267 269 268 268 267 264 264 265 266 267 268 269 269 269 269 267 266 267 268 266 265 268 268 266
242 271 280 282 283 301 321 307 292 297 299 294 290 296 299 304 318 346 331 318 326 326 313 329 329 319 321 290 231 330 346 338 340 333 324 327 326 324 329 330 331 332 316 296 296 301 311 315 310 298 286 282 281 278 276 275 271 270 272 271 268 267 269 272 269 271 270 265 265 266 266 267 268 270 270 272 272 269 268 269 269 268 268 268 268 267
250 268 275 276 288 307 313 304 296 289 290 289 286 288 287 296 309 321 320 312 323 326 317 335 331 320 340 81 214 332 337 336 347 343 327 327 330 328 328 325 325 331 321 295 294 309 319 313 305 297 289 282 280 281 281 280 275 272 272 271 272 270 271 273 270 274 274 267 266 267 268 267 268 272 272 273 272 268 268 269 269 269 270 269 266 263
256 267 278 287 302 308 300 298 299 288 281 281 280 288 291 291 301 315 314 300 304 312 312 326 324 312 294 247 311 329 334 340 347 339 329 329 329 332 333 328 328 328 324 315 310 311 319 323 317 303 296 288 285 284 281 279 276 273 274 272 273 271 269 271 271 276 277 270 266 267 269 268 268 272 273 272 270 267 267 269 271 272 272 270 265 260
257 269 285 295 292 292 298 297 295 289 281 278 270 276 289 282 288 312 317 303 297 296 291 312 321 316 240 265 318 331 340 350 353 351 348 337 324 327 335 330 333 339 339 333 324 316 313 311 313 311 305 294 289 286 279 278 276 276 279 277 276 274 270 270 272 278 280 274 269 268 269 271 271 272 273 272 269 266 265 267 272 274 271 269 265 260
256 266 275 284 286 284 291 292 287 287 285 287 277 275 293 291 288 307 308 302 303 292 270 304 320 338 180 305 318 320 342 356 1 4 1 349 329 310 321 332 340 344 342 336 325 312 303 297 291 298 304 292 285 288 286 284 284 284 286 284 281 277 274 274 273 278 282 275 270 270 270 272 273 272 272 273 270 268 267 266 271 273 268 266 265 261
256 264 273 282 292 291 288 285 283 284 277 289 308 301 310 314 294 299 300 297 301 293 280 288 297 307 279 316 326 329 356 5 7 12 4 355 331 301 317 347 352 350 343 342 334 310 293 291 291 295 300 293 286 291 293 294 294 293 294 291 287 283 287 290 287 288 292 285 277 275 274 274 274 274 275 275 273 273 270 266 268 269 262 261 264 262
255 260 269 271 280 286 283 280 284 287 270 286 326 317 310 312 295 298 303 298 297 293 284 269 260 290 295 301 327 331 348 10 26 21 3 356 342 320 337 355 353 348 340 342 346 330 295 287 288 296 305 303 300 300 298 298 296 296 300 302 301 301 303 302 298 299 303 302 293 283 278 276 275 277 279 277 274 275 273 268 266 264 257 255 260 261
262 261 264 258 264 271 270 283 302 299 275 281 312 314 304 301 294 294 297 293 291 293 294 274 260 293 298 272 311 334 344 36 45 20 3 0 355 342 348 352 350 346 338 336 340 337 323 304 293 301 315 314 315 313 307 305 304 303 309 314 311 311 311 304 298 300 303 306 304 293 285 281 278 280 283 282 278 278 276 269 262 259 255 253 255 258
282 290 287 268 262 262 264 288 309 302 285 288 301 305 298 291 289 290 286 285 289 292 299 285 268 285 289 253 278 306 313 340 13 357 349 352 353 343 340 346 348 344 342 343 339 338 343 332 310 304 319 323 327 325 315 312 316 316 322 326 321 317 316 311 306 305 306 306 305 299 292 287 285 283 284 285 283 281 276 266 257 257 255 250 251 255
269 277 286 278 268 273 279 289 299 293 289 294 295 294 292 286 282 281 281 287 291 289 287 279 274 281 290 288 288 284 283 288 327 337 335 340 353 350 346 354 359 355 348 346 342 340 345 340 330 330 341 341 343 343 335 325 323 327 336 342 338 329 324 320 316 313 312 312 308 303 296 293 294 292 287 285 284 282 275 264 257 257 254 248 249 253
257 260 266 272 267 273 278 277 284 281 278 289 293 291 295 294 280 261 269 292 285 278 283 290 291 285 290 313 313 330 352 322 316 331 343 355 360 355 356 6 7 4 2 358 352 348 350 346 342 345 355 358 356 352 346 338 332 336 346 351 346 337 332 330 326 320 317 317 315 310 303 298 299 299 294 287 281 279 275 267 260 257 253 248 248 250
256 256 257 268 262 262 274 276 278 275 269 275 287 290 289 296 293 262 262 282 282 277 278 290 300 278 249 285 274 43 20 352 327 322 338 359 356 350 357 7 1 360 4 3 359 355 350 347 344 345 354 4 2 357 352 347 343 344 350 355 354 347 342 339 335 329 322 318 318 317 314 308 302 300 299 295 287 280 277 271 261 256 253 248 246 248
255 246 247 267 261 243 268 280 278 283 280 271 279 287 281 285 295 287 277 275 279 282 275 277 291 251 222 251 212 171 350 342 332 328 343 348 336 330 343 357 357 1 2 355 355 354 349 348 348 350 358 4 2 358 355 353 351 351 353 356 357 355 353 350 345 340 332 323 321 321 319 314 306 300 301 302 298 289 283 277 266 258 254 248 245 246
269 255 243 256 257 232 266 288 293 292 279 270 274 270 278 302 295 283 287 286 286 293 286 277 274 255 238 221 195 296 315 318 323 338 351 337 320 319 334 343 346 354 354 348 353 355 351 350 343 342 350 355 357 356 354 354 353 353 354 353 354 355 354 351 348 346 340 331 328 326 324 318 311 307 304 304 304 298 291 285 274 265 257 248 244 245
273 282 244 236 261 270 277 294 303 282 264 285 289 251 261 316 313 291 289 295 294 293 289 288 277 224 204 213 242 305 312 305 308 334 347 338 327 322 330 332 329 337 342 340 344 345 342 342 334 330 336 342 347 351 352 354 353 353 353 351 352 354 353 350 348 347 344 340 336 331 326 320 316 313 310 306 304 301 298 291 280 271 261 251 245 245
268 281 266 255 269 272 274 287 290 272 272 291 288 271 291 301 311 311 293 288 290 283 281 293 261 173 180 250 291 309 304 292 301 316 325 328 326 324 329 323 317 325 330 326 330 335 333 330 326 327 336 341 344 348 350 351 351 352 354 353 352 352 351 349 347 346 345 344 341 334 328 323 320 316 313 309 305 303 303 297 285 274 265 255 248 246
272 274 270 271 274 267 266 279 277 266 271 273 267 301 314 287 281 298 291 288 291 284 287 280 195 231 264 288 296 302 302 298 306 313 316 317 313 315 319 311 306 312 315 311 317 326 327 321 318 323 335 339 338 342 346 347 347 348 352 354 353 351 348 346 344 343 343 341 341 338 332 326 323 319 315 311 308 307 307 303 292 279 268 259 250 247
283 273 262 271 278 270 262 275 277 258 247 260 278 295 304 287 285 288 285 296 295 284 286 191 154 288 291 293 297 302 307 305 307 309 312 313 303 301 304 301 298 300 304 308 309 312 318 318 316 318 325 329 330 333 339 342 345 346 347 349 350 350 348 345 342 341 340 340 338 337 334 330 327 323 319 315 312 311 308 306 301 287 273 262 253 248
281 272 263 264 271 285 282 267 280 271 238 250 280 285 277 285 297 288 279 292 295 290 283 269 277 285 279 288 297 300 302 304 307 304 302 304 299 297 300 299 298 299 302 304 300 302 312 315 313 309 309 317 324 329 334 336 340 343 343 344 345 346 344 342 339 338 339 339 336 333 331 330 330 327 322 320 317 315 311 307 304 296 281 267 256 250
264 267 269 262 260 285 292 270 280 311 274 260 283 293 287 288 296 296 289 287 288 288 283 280 281 270 268 284 293 295 296 300 305 301 298 302 302 301 302 299 300 301 300 299 297 301 310 311 309 304 303 311 320 327 332 331 333 337 338 339 340 340 338 335 333 331 332 335 334 331 327 325 327 325 322 321 318 314 312 308 306 304 292 274 262 255
257 262 268 267 263 269 289 291 284 292 290 279 283 295 296 294 295 297 297 292 288 286 287 289 288 277 278 286 286 288 292 296 299 297 296 300 302 302 302 302 302 301 301 303 301 301 304 305 302 302 311 320 321 325 328 326 328 331 332 333 334 334 333 331 329 325 325 329 330 329 325 322 322 321 319 319 317 313 310 307 306 307 300 285 271 262
265 261 261 264 265 266 287 303 294 290 290 279 276 284 290 293 295 293 297 302 296 289 290 291 287 278 281 287 288 288 292 296 296 295 295 295 297 300 300 302 303 300 303 307 304 299 297 292 289 299 319 327 324 325 326 325 326 325 326 328 327 327 328 328 326 323 321 322 324 324 322 319 318 316 315 314 314 311 308 307 307 307 304 293 280 270
270 264 264 269 272 274 285 295 294 297 299 288 280 281 283 292 296 291 296 301 298 295 296 295 288 278 278 285 288 289 292 293 291 293 295 294 296 298 298 299 302 300 301 303 303 301 294 283 287 308 326 328 325 325 325 323 323 322 322 323 323 323 323 322 322 321 318 316 316 316 316 315 316 314 311 310 310 310 309 307 305 304 304 297 286 277
265 266 270 278 285 279 278 282 285 295 299 291 286 286 291 300 298 294 296 297 296 301 303 298 289 280 277 281 285 289 293 291 290 293 296 296 297 297 297 297 297 298 301 301 302 302 295 293 308 325 329 326 325 324 322 321 321 320 320 320 320 319 319 318 317 317 315 311 310 310 310 311 313 312 310 309 307 307 308 306 302 300 300 296 289 282
261 266 267 268 270 274 278 277 277 285 281 270 276 286 293 299 299 297 297 294 295 303 305 300 293 281 272 275 283 288 289 288 288 289 290 294 296 295 296 298 296 296 299 299 298 296 298 307 321 327 325 325 324 321 320 320 320 319 318 319 318 317 316 315 314 313 312 309 307 306 306 308 310 309 307 306 304 305 305 304 302 299 297 293 289 283
261 266 268 266 263 270 280 277 271 273 270 269 279 287 288 292 296 295 293 293 296 300 299 295 291 279 268 270 276 279 281 283 285 288 292 297 296 292 294 298 301 303 301 298 299 300 305 314 321 323 322 322 321 319 318 318 319 318 318 318 317 316 315 314 312 310 309 307 306 304 303 305 306 304 302 302 301 301 301 300 299 297 296 295 291 284
262 264 265 267 268 272 278 279 276 275 274 275 281 285 286 289 292 291 290 293 295 297 294 287 286 286 281 277 276 279 282 281 284 290 294 295 292 292 296 299 303 308 307 305 307 310 313 316 318 319 319 318 317 316 315 316 316 316 315 315 315 314 313 313 311 308 306 304 303 302 301 301 301 300 299 297 296 296 297 297 296 294 295 296 293 286
263 266 269 274 275 276 279 281 281 278 277 278 280 282 284 287 289 288 288 291 292 292 291 287 287 294 294 286 283 287 290 286 287 292 294 295 296 298 300 299 301 307 308 307 308 310 312 313 314 315 316 316 315 314 313 313 313 312 312 312 312 311 310 309 308 307 304 301 300 299 298 298 297 297 296 294 293 292 292 293 293 292 292 293 291 286
266 269 274 279 280 280 281 281 283 281 279 280 279 279 281 284 286 286 286 291 292 291 291 291 292 296 297 294 291 292 296 296 295 297 298 299 299 299 298 296 298 304 305 303 304 305 306 307 309 310 311 312 312 312 310 310 309 309 308 307 307 306 305 304 305 305 303 299 298 297 296 295 295 295 295 293 291 290 289 290 291 290 290 290 288 284
272 272 275 279 279 280 278 278 280 281 280 281 280 279 278 280 284 284 283 291 294 291 292 292 291 290 291 296 295 292 294 296 295 297 299 299 299 298 299 298 298 301 303 302 302 301 302 304 305 307 308 309 310 310 309 308 307 307 306 306 306 304 302 301 302 302 301 299 297 296 295 294 293 293 292 291 290 288 287 287 288 288 288 286 284 282
274 277 280 281 280 281 281 280 281 281 282 282 283 281 277 280 288 288 285 292 297 296 294 293 291 287 285 290 292 292 293 294 296 298 297 298 299 298 298 301 301 301 302 302 301 300 300 301 302 304 305 306 307 308 308 307 306 305 305 305 305 304 302 301 301 300 299 297 296 295 295 294 293 292 291 290 288 288 287 286 286 287 286 284 283 282
275 277 280 282 281 282 285 287 289 289 286 283 284 286 287 294 301 298 293 296 300 300 297 292 288 284 283 287 290 292 295 297 299 300 296 296 299 298 297 300 302 302 301 300 301 299 298 300 300 301 302 302 304 304 304 304 303 303 303 303 303 303 302 301 300 298 296 294 293 294 294 294 293 291 290 289 288 288 287 286 285 285 283 282 283 283
275 275 277 279 279 282 286 289 289 287 285 283 282 283 287 294 297 295 294 296 298 300 298 291 287 287 288 290 290 290 294 297 296 296 295 294 297 298 298 300 302 304 304 303 303 302 301 301 301 301 302 302 303 303 302 301 300 300 301 301 302 301 300 299 299 297 294 291 290 290 292 292 291 290 289 288 289 288 287 284 283 281 280 281 283 284
275 274 274 274 275 280 285 285 282 280 282 287 289 288 288 289 292 291 291 297 301 301 297 292 291 294 293 293 293 293 296 297 296 296 296 295 295 298 299 300 302 305 305 303 303 302 302 302 301 302 304 303 303 302 301 299 299 300 300 300 300 299 299 298 297 295 293 291 289 288 288 288 287 287 286 286 287 287 286 283 281 279 279 280 281 281
276 275 275 274 273 276 278 276 276 279 282 284 291 299 295 290 290 287 285 295 301 299 297 295 293 292 292 293 297 297 296 296 295 295 295 293 294 298 299 299 301 303 303 302 302 303 303 303 303 305 305 304 302 300 299 299 300 300 299 299 298 297 297 297 296 294 293 291 290 288 287 286 285 283 283 283 284 285 284 283 281 279 279 280 279 278
275 276 276 275 272 274 276 275 276 278 280 285 296 304 302 295 294 290 285 291 298 297 297 297 295 294 294 295 295 293 292 294 294 294 293 292 294 297 299 300 301 302 302 302 302 302 303 303 305 305 304 302 300 299 299 300 300 299 298 298 297 296 295 295 294 294 293 291 290 289 288 287 285 282 281 281 282 282 282 282 281 280 279 279 279 278
272 270 275 277 273 273 275 276 277 278 279 289 299 303 302 297 295 292 286 286 294 298 296 295 296 296 296 296 296 292 292 296 297 295 294 293 295 297 298 300 301 301 301 301 301 301 302 304 305 303 301 300 300 301 301 301 300 299 298 297 297 296 295 294 293 293 292 292 290 289 288 287 285 283 281 279 279 279 280 280 280 279 279 279 278 277
273 265 270 274 274 276 277 277 279 278 278 292 300 303 304 300 294 292 286 282 289 296 296 296 297 297 296 297 297 295 295 296 296 295 294 294 296 298 299 299 299 299 300 300 301 301 303 304 302 301 300 302 302 303 303 302 300 299 298 297 297 296 295 294 294 293 293 292 291 290 289 287 285 283 281 279 278 277 277 278 278 278 278 278 277 276
277 269 271 272 272 275 274 276 281 279 281 297 302 302 304 301 294 290 286 283 288 295 298 298 297 297 297 298 297 297 297 296 295 296 297 296 297 298 298 298 298 299 299 300 300 302 303 302 300 301 302 303 303 303 303 302 301 299 298 297 296 296 295 295 294 294 293 292 291 290 289 288 286 284 282 280 278 277 276 276 276 275 276 276 275 274
283 282 279 279 280 278 274 276 281 277 285 298 302 303 303 297 291 290 287 286 290 295 298 299 298 297 298 297 297 297 296 295 295 296 296 297 297 298 298 298 299 299 299 299 301 302 301 300 301 302 302 302 302 302 302 301 300 298 297 297 296 296 295 295 295 294 293 293 291 290 289 288 286 285 283 281 279 277 275 275 274 274 274 274 273 272
289 289 284 285 289 287 283 283 281 281 294 300 300 305 306 297 290 291 289 287 291 293 295 298 299 298 297 297 297 295 295 296 296 296 296 297 297 297 298 298 299 299 299 300 301 301 300 300 302 302 302 302 302 301 300 300 299 298 297 297 295 295 295 295 295 294 293 292 291 290 289 288 286 285 284 282 280 278 276 275 274 273 273 272 271 271
288 285 284 292 296 290 286 288 283 286 303 306 300 301 305 299 294 293 289 289 293 295 294 296 298 297 297 297 296 295 296 296 296 297 297 297 297 297 298 298 299 299 299 300 300 301 301 302 302 303 303 302 301 300 300 300 299 298 297 296 296 296 295 295 295 295 294 292 291 289 288 287 286 285 284 283 281 279 277 275 274 272 272 271 270 270
286 282 283 292 298 291 287 289 285 287 302 310 304 300 301 299 298 297 294 291 294 295 295 296 297 298 298 298 296 296 297 297 297 298 298 298 298 298 298 298 298 299 299 300 300 301 302 302 302 302 302 301 301 300 300 299 299 298 297 297 296 296 295 295 295 295 294 293 291 290 288 287 286 284 283 282 281 280 278 276 274 273 271 270 269 269
288 288 285 287 293 292 287 285 284 285 294 304 305 302 302 302 301 300 298 295 294 295 296 295 296 298 299 298 297 297 297 298 298 298 298 298 298 298 298 298 299 299 299 300 300 301 302 302 302 302 302 301 301 301 300 300 299 298 298 297 297 296 296 295 295 295 294 293 292 290 288 286 285 284 283 282 280 279 278 277 275 274 272 270 268 268
290 294 289 283 286 289 286 285 286 285 290 298 302 301 302 303 303 300 297 296 295 296 296 296 296 298 299 299 299 298 298 299 299 298 298 298 298 298 298 298 299 299 299 299 300 300 301 301 301 301 301 301 301 301 301 300 300 299 299 298 298 297 297 296 296 295 295 293 292 291 289 287 285 284 283 281 280 279 277 276 275 274 272 270 268 267
300 303 294 283 286 288 286 289 293 292 294 298 300 302 303 304 305 303 300 298 297 297 298 298 298 299 299 299 300 300 300 300 299 298 298 298 298 298 298 298 299 299 299 299 299 300 300 300 300 301 301 302 302 301 301 301 300 300 300 299 299 298 298 297 297 296 295 294 293 292 290 288 286 284 283 281 280 278 277 275 274 273 271 269 267 266
297 300 297 294 295 293 291 296 298 295 296 299 298 300 303 302 303 305 303 301 300 299 300 300 300 299 300 300 300 301 300 300 299 299 299 299 298 298 298 299 299 299 299 299 299 299 300 300 300 301 302 302 301 301 301 301 301 300 300 300 300 299 298 298 298 297 296 295 294 293 291 289 288 286 284 282 281 279 277 276 274 273 272 269 266 265
290 290 294 297 297 295 298 303 300 293 296 303 302 302 303 302 302 304 304 302 302 301 301 302 301 300 301 301 301 300 300 300 300 300 299 299 299 299 299 300 300 299 299 299 300 300 300 300 301 301 302 301 302 302 302 302 301 301 301 301 301 300 299 299 299 298 297 296 295 293 292 291 290 288 285 283 281 279 278 277 275 273 273 270 267 265
291 288 293 296 296 298 302 305 301 294 295 302 304 304 304 303 303 304 303 303 304 304 303 303 302 302 302 302 301 300 299 300 300 300 299 299 299 299 299 299 299 300 300 300 300 300 300 300 301 302 302 302 302 302 302 302 302 301 301 301 301 301 300 300 301 300 299 297 296 294 292 291 290 289 286 283 281 280 278 277 275 274 273 272 269 266
296 296 298 295 295 298 301 304 304 299 297 301 303 303 304 305 305 305 305 306 306 305 305 305 304 304 303 302 301 301 300 300 300 300 299 299 299 299 299 299 300 301 300 300 300 300 300 301 301 302 302 302 303 302 302 302 302 302 302 302 302 302 302 302 302 302 301 299 297 294 293 291 290 289 286 284 282 280 279 278 277 275 274 272 270 268